Location: *
(51.0333°S, 178.4667°E)
Time: 20:32:01
(UTC+00:00)

Aureole 3 Rocket - Pass Details

Date: 15 November 2019
Orbit: 398 x 1742 km, 82.5° (Epoch: 14 December)

Event Time Altitude Azimuth Distance (km) Brightness Sun altitude
Exits shadow 10:27:37 30° 83° (E) 859 3.5 -18.1°
Maximum altitude 10:27:51 31° 91° (E) 860 3.6 -18.2°
Drops below altitude 10° 10:31:15 10° 154° (SSE) 1,827 6.1 -18.3°
Sets 10:33:53 0° 163° (SSE) 2,911 7.4 -18.5°
